Simultaneous Nadir Overpasses (SNOs) Predictions

Prediction of SNOs between GOES-16 and LANDSAT-8 Satellite Orbit:

Table of predicted SNOs for the next 14.0 days since TLE Epoch: 10/28/2023
Index Date Time (GOES-16) GOES-16 Lat,Lon LANDSAT-8 Lat,Lon Distance(km) Time Diff (sec)
1 10/28/2023 03:24:41 0.06, -75.19 -0.49, -77.65 279.48 80
2 10/30/2023 03:09:51 0.06, -75.20 0.19, -74.70 57.66 80
3 11/01/2023 02:57:39 0.05, -75.21 0.78, -71.74 395.15 80
4 11/01/2023 15:18:55 -0.05, -75.24 0.29, -76.90 188.51 80
5 11/03/2023 15:09:23 -0.04, -75.26 -0.32, -73.94 149.98 80
6 11/04/2023 03:30:47 0.04, -75.24 -0.79, -79.13 441.69 80
7 11/05/2023 14:57:11 -0.03, -75.28 -0.94, -70.98 489.31 80
8 11/06/2023 03:18:35 0.03, -75.27 -0.16, -76.17 102.12 80
9 11/08/2023 03:03:43 0.03, -75.30 0.50, -73.21 238.35 80
10 11/08/2023 15:24:58 -0.03, -75.33 0.62, -78.36 344.74 80
11 11/10/2023 15:15:25 -0.03, -75.37 0.00, -75.39 4.36 80
